All
Lizard Island Airport (Lizard Island, Queensland) LZR Weather
There is no TAF data available at LZR or any nearby airports.
There is no METAR data available at LZR. Showing METAR data for YCFL (23 mi SW).
Recent YCFL METAR history (no data for LZR)
| Date | Time (AEST) | Flight Rules | Wind Dir. | Speed | Type | Height AGL (ft) | Visibility | Temp (°C) | Temp (°F) | Dew Point (°C) | Dew Point (°F) | Rel. Humid. | Pressure | Density Altitude | Remarks |
|---|---|---|---|---|---|---|---|---|---|---|---|---|---|---|---|
| 09-May | 14:00 | n/a | 150° | 16 kt | Missing | 25° | 77° | 24° | 75° | 94% | 1013 mb | 1,252 ft | |||
| 09-May | 13:00 | n/a | 150° | 19 kt | Missing | 24° | 75° | 24° | 75° | 100% | 1013 mb | 1,132 ft | |||
| 09-May | 12:00 | n/a | 130° | 14 kt | Missing | 24° | 75° | 23° | 73° | 94% | 1014 mb | 1,103 ft | |||
| 09-May | 11:00 | n/a | 140° | 15 kt | Missing | 25° | 77° | 24° | 75° | 94% | 1015 mb | 1,193 ft | |||
| 09-May | 10:00 | n/a | 140° | 18 kt | Missing | 24° | 75° | 24° | 75° | 100% | 1015 mb | 1,073 ft | |||
| 09-May | 09:00 | n/a | 150° | 17 kt | Missing | 24° | 75° | 24° | 75° | 100% | 1014 mb | 1,103 ft | |||
| 09-May | 08:02 | n/a | 140° | 17 kt | Missing | 24° | 75° | 24° | 75° | 100% | 1014 mb | 1,103 ft | Wind gusting to 27 KT | ||
| 09-May | 07:00 | n/a | 150° | 18 kt | Missing | 24° | 75° | 24° | 75° | 100% | 1013 mb | 1,132 ft | |||
| 09-May | 06:00 | n/a | 120° | 12 kt | Missing | 24° | 75° | 24° | 75° | 100% | 1013 mb | 1,132 ft | |||
| 09-May | 05:00 | n/a | 140° | 13 kt | Missing | 24° | 75° | 24° | 75° | 100% | 1012 mb | 1,162 ft | |||
| 09-May | 04:00 | n/a | 130° | 13 kt | Missing | 24° | 75° | 23° | 73° | 94% | 1012 mb | 1,162 ft | |||
| 09-May | 03:00 | n/a | 120° | 13 kt | Missing | 24° | 75° | 23° | 73° | 94% | 1012 mb | 1,162 ft | |||
| 09-May | 02:00 | n/a | 110° | 14 kt | Missing | 24° | 75° | 23° | 73° | 94% | 1012 mb | 1,162 ft | |||
| 09-May | 01:00 | n/a | 160° | 13 kt | Missing | 25° | 77° | 24° | 75° | 94% | 1013 mb | 1,252 ft | |||
| 09-May | 00:00 | n/a | 150° | 14 kt | Missing | 25° | 77° | 24° | 75° | 94% | 1013 mb | 1,252 ft | |||
| 08-May | 23:00 | n/a | 140° | 16 kt | Missing | 25° | 77° | 24° | 75° | 94% | 1014 mb | 1,223 ft | |||
| 08-May | 22:00 | n/a | 150° | 17 kt | Missing | 25° | 77° | 24° | 75° | 94% | 1014 mb | 1,223 ft | |||
| 08-May | 21:00 | n/a | 160° | 16 kt | Missing | 25° | 77° | 24° | 75° | 94% | 1014 mb | 1,223 ft | |||
| 08-May | 20:00 | n/a | 160° | 17 kt | Missing | 25° | 77° | 24° | 75° | 94% | 1013 mb | 1,252 ft | |||
| 08-May | 19:00 | n/a | 150° | 15 kt | Missing | 25° | 77° | 24° | 75° | 94% | 1013 mb | 1,252 ft | |||
| 08-May | 18:00 | n/a | 140° | 15 kt | Missing | 24° | 75° | 24° | 75° | 100% | 1012 mb | 1,162 ft | Wind gusting to 26 KT | ||
| 08-May | 17:00 | n/a | 150° | 17 kt | Missing | 26° | 78° | 23° | 73° | 84% | 1012 mb | 1,402 ft | |||
| 08-May | 16:00 | n/a | 160° | 19 kt | Missing | 27° | 80° | 24° | 75° | 84% | 1011 mb | 1,551 ft | |||
| 08-May | 15:00 | n/a | 150° | 19 kt | Missing | 27° | 80° | 24° | 75° | 84% | 1011 mb | 1,551 ft |
Login
| Your browser is unsupported. upgrade your browser |
